[[{"header":{"parameterUnit":"m.s-1","parameterCategory":1,"la1":30.2991,"la2":30.254,"lo1":-89.0895,"lo2":-89.0444,"dy":0.0017,"dx":0.0017,"nx":28,"ny":28,"refTime":"2024-08-30T09:00:00:Z","depth":0,"parameterNumber":2,"parameterNumberName":"U-component_of_WINDS"},"data":[0,0,0,0,0,0,0,0,0,0,0,0,0,0,0,0,0,0,0,0,0,0,0,0,0,0,0,0,0,0,0,0,0,0,0,0,0,0,0,0,0,0,0,0,0,0,0,0,0,0,0,0,0,0,0,0,0,0,-3.3793,-3.3796,0,-3.4018,-3.4021,-3.4023,-3.4048,-3.4046,-3.4044,-3.4042,-3.4271,-3.4279,-3.4287,0,0,0,0,0,0,0,0,0,0,0,0,0,-3.3384,-3.3392,-3.3793,-3.3796,-3.3799,-3.4018,-3.4021,-3.4024,-3.4049,-3.4046,-3.4043,-3.4041,-3.4269,-3.4278,-3.4288,0,0,0,0,0,0,0,0,0,0,0,0,0,-3.3581,-3.3394,-3.3792,-3.3837,-3.3844,-3.4017,-3.4021,-3.4025,-3.4049,-3.4046,-3.4043,-3.4039,-3.4265,-3.4277,-3.429,-3.4434,0,0,-3.4327,-3.4333,0,0,0,0,0,0,0,0,-3.357,-3.3596,-3.3828,-3.3835,-3.3842,-3.4002,-3.3961,-3.4162,-3.405,-3.3971,-3.4042,-3.4038,-3.4184,-3.4203,-3.4253,-3.4444,-3.4454,-3.4328,-3.4336,-3.4341,-3.4345,0,0,0,0,0,0,0,-3.3556,-3.3586,-3.3882,-3.3831,-3.384,-3.3846,-3.3871,-3.3999,-3.4094,-3.3978,-3.398,-3.4007,-3.4188,-3.4241,-3.4258,-3.4458,-3.4328,-3.4339,-3.4347,-3.4351,-3.4779,-3.4783,0,0,0,0,0,0,-3.3534,-3.3575,-3.3875,-3.3889,-3.3695,-3.3856,-3.3884,-3.3954,-3.4093,-3.4111,-3.4009,-3.4007,-3.4221,-3.4244,-3.4267,-3.4444,-3.4341,-3.4353,-3.436,-3.4775,-3.478,-3.4784,0,0,0,0,0,0,-3.3525,-3.3561,-3.3866,-3.3733,-3.3772,-3.3867,-3.3946,-3.396,-3.4013,-3.4117,-3.4133,-3.4046,-3.422,-3.4249,-3.4392,-3.4452,-3.4358,-3.4369,-3.4771,-3.4777,-3.4782,-3.4799,0,0,0,0,0,0,-3.3513,-3.3557,-3.3613,-3.3734,-3.3779,-3.3987,-3.395,-3.3967,-3.4035,-3.4034,-3.4156,-3.4173,-3.4219,-3.4374,-3.4404,-3.4467,-3.4379,-3.4766,-3.4773,-3.478,-3.4793,-3.4805,-3.4815,0,0,0,0,0,-3.3499,-3.3608,-3.3615,-3.3651,-3.385,-3.3991,-3.4017,-3.4068,-3.404,-3.4096,-3.4163,-3.4169,-3.4441,-3.4388,-3.4423,-3.449,-3.4762,-3.4771,-3.478,-3.4789,-3.4803,-3.4814,0,0,0,0,0,0,-3.3491,-3.3625,-3.3634,-3.3786,-3.3877,-3.3995,-3.4067,-3.4081,-3.4182,-3.4177,-3.4237,-3.4264,-3.4404,-3.4462,-3.44,-3.4637,-3.4599,-3.4615,-3.4594,-3.4608,-3.4618,-3.46,-3.4389,0,0,0,0,0,-3.3507,-3.361,-3.3722,-3.3845,-3.389,-3.3971,-3.4034,-3.4067,-3.4163,-3.4201,-3.4278,-3.4371,-3.4478,-3.4546,-3.465,-3.4803,-3.483,-3.4867,-3.4878,-3.4886,-3.4898,-3.4983,-3.5001,-3.4814,-3.4814,-3.4813,0,0,-3.3541,-3.3627,-3.3688,-3.3846,-3.392,-3.4025,-3.4003,-3.4115,-3.4193,-3.4218,-3.4357,-3.4417,-3.4525,-3.4674,-3.4743,-3.4726,-3.4956,-3.4897,-3.4903,-3.4911,-3.4994,-3.5012,-3.5027,-3.482,-3.4819,-3.4818,0,0,-3.3656,-3.3732,-3.3842,-3.3918,-3.4031,-3.4084,-3.4111,-3.4228,-3.4268,-3.441,-3.443,-3.4525,-3.4708,-3.4783,-3.4846,-3.4993,-3.5002,-3.5025,-3.5078,-3.5161,-3.5175,-3.5189,-3.5239,-3.5257,-3.5038,-3.5038,-3.5038,0,-3.3683,-3.3842,-3.3897,-3.4009,-3.4078,-3.4107,-3.4219,-3.429,-3.443,-3.4477,-3.4457,-3.4687,-3.4762,-3.4928,-3.4964,-3.5015,-3.5046,-3.5009,-3.5169,-3.5183,-3.5196,-3.5245,-3.5264,-3.504,-3.504,-3.5039,-3.5039,0,-3.3869,-3.398,-3.4056,-3.4192,-3.4269,-3.4381,-3.4453,-3.4526,-3.4552,-3.4608,-3.4751,-3.4843,-3.4965,-3.5008,-3.5035,-3.5179,-3.5165,-3.5157,-3.5118,-3.5215,-3.5262,-3.5281,-3.5042,-3.5042,-3.5041,-3.5041,0,0,-3.3982,-3.4149,-3.4176,-3.4238,-3.4366,-3.4452,-3.4566,-3.4687,-3.4746,-3.4844,-3.494,-3.5095,-3.5088,-3.5159,-3.5196,-3.5268,-3.5377,-3.5251,-3.5254,-3.5269,-3.554,-3.5543,-3.5564,-3.5385,-3.5389,-3.5392,-3.553,0,-3.4109,-3.4311,-3.4366,-3.4537,-3.464,-3.467,-3.4769,-3.4859,-3.4915,-3.501,-3.5072,-3.518,-3.5164,-3.5207,-3.528,-3.5348,-3.5432,-3.5339,-3.5474,-3.5478,-3.5443,-3.5589,-3.5593,-3.5718,-3.5549,-3.5552,-3.5555,0,-3.4284,-3.4385,-3.4567,-3.4683,-3.4728,-3.4815,-3.4931,-3.5022,-3.5124,-3.516,-3.5241,-3.5271,-3.539,-3.5349,-3.5514,-3.545,-3.5509,-3.5551,-3.5557,-3.5569,-3.5519,-3.5602,-3.576,-3.5777,-3.5584,-3.5582,-3.558,0,-3.4345,-3.4527,-3.4659,-3.4712,-3.4851,-3.4912,-3.4972,-3.5072,-3.5141,-3.5243,-3.5288,-3.5403,-3.5464,-3.5552,-3.5613,-3.5577,-3.5773,-3.5736,-3.5805,-3.5803,-3.5841,-3.5837,-3.6007,-3.5884,-3.5884,-3.5884,-3.5883,0,-3.4479,-3.4589,-3.4688,-3.4769,-3.4893,-3.4956,-3.5077,-3.5139,-3.5227,-3.5321,-3.5356,-3.5443,-3.5518,-3.5616,-3.5664,-3.5793,-3.5822,-3.5853,-3.5864,-3.5848,-3.5844,-3.5885,-3.5877,-3.5889,-3.5888,-3.5887,-3.5886,0,-3.4566,-3.4638,-3.4783,-3.4904,-3.4937,-3.5023,-3.5126,-3.5206,-3.5264,-3.5382,-3.5414,-3.5505,-3.5622,-3.5692,-3.584,-3.5872,-3.6014,-3.6023,-3.5979,-3.5984,-3.6047,-3.6039,-3.6247,-3.6277,-3.6136,-3.6138,-3.6139,0,-3.4645,-3.4731,-3.4861,-3.4926,-3.4988,-3.5093,-3.5164,-3.523,-3.5303,-3.5428,-3.5493,-3.5612,-3.571,-3.5896,-3.5975,-3.6089,-3.6099,-3.6164,-3.6116,-3.6097,-3.6097,-3.609,-3.6098,-3.6171,-3.6172,-3.6173,-3.6174,0,-3.4778,-3.481,-3.4912,-3.5027,-3.5111,-3.5204,-3.5297,-3.5349,-3.5431,-3.5512,-3.5632,-3.5708,-3.586,-3.5978,-3.6098,-3.6161,-3.6181,-3.6189,-3.6211,-3.6194,-3.6164,-3.6179,-3.5998,-3.6183,-3.6182,-3.6181,-3.6181,-3.6181,-3.4862,-3.4939,-3.5043,-3.5155,-3.5233,-3.532,-3.54,-3.547,-3.5571,-3.57,-3.5734,-3.5859,-3.5962,-3.6126,-3.6192,-3.6291,-3.6281,-3.6312,-3.632,-3.6326,-3.6326,-3.6151,-3.6314,-3.6314,-3.6314,-3.6313,-3.6313,0,-3.4995,-3.5064,-3.5167,-3.5296,-3.5385,-3.5398,-3.5503,-3.5575,-3.5686,-3.578,-3.5877,-3.6015,-3.613,-3.622,-3.6338,-3.64,-3.6413,-3.6429,-3.6423,-3.6437,-3.633,-3.6298,-3.6417,-3.6417,-3.6417,-3.6417,-3.6417,-3.6417,-3.5073,-3.5204,-3.5248,-3.5418,-3.5487,-3.561,-3.5668,-3.5749,-3.5824,-3.5977,-3.6073,-3.6132,-3.6224,-3.635,-3.6456,-3.648,-3.652,-3.6535,-3.656,-3.6456,-3.6445,-3.6434,-3.6404,-3.6544,-3.6544,-3.6659,-3.666,-3.6661]},{"header":{"parameterUnit":"m.s-1","parameterCategory":1,"la1":30.2991,"la2":30.254,"lo1":-89.0895,"lo2":-89.0444,"dy":0.0017,"dx":0.0017,"nx":28,"ny":28,"refTime":"2024-08-30T09:00:00:Z","depth":0,"parameterNumber":3,"parameterNumberName":"V-component_of_WINDS"},"data":[0,0,0,0,0,0,0,0,0,0,0,0,0,0,0,0,0,0,0,0,0,0,0,0,0,0,0,0,0,0,0,0,0,0,0,0,0,0,0,0,0,0,0,0,0,0,0,0,0,0,0,0,0,0,0,0,0,0,1.0024,1.0024,0,1.0077,1.0077,1.0078,1.0038,1.0036,1.0034,1.0033,1.0089,1.0092,1.0095,0,0,0,0,0,0,0,0,0,0,0,0,0,0.9892,0.9895,1.0024,1.0024,1.0025,1.0076,1.0077,1.0078,1.0038,1.0036,1.0034,1.0032,1.0088,1.0092,1.0095,0,0,0,0,0,0,0,0,0,0,0,0,0,0.9947,0.9895,1.0024,1.0011,1.0011,1.0076,1.0077,1.0078,1.0039,1.0036,1.0033,1.0031,1.0087,1.0091,1.0096,1.0177,0,0,1.011,1.0112,0,0,0,0,0,0,0,0,0.9944,0.9952,1.0013,1.0012,1.0012,1.0048,1.0051,1.0111,1.0039,1.0028,1.0033,1.003,1.0078,1.0083,1.0099,1.018,1.0182,1.0111,1.0114,1.0116,1.0117,0,0,0,0,0,0,0,0.9941,0.995,1.0045,1.0014,1.0013,1.0004,1.0009,1.0063,1.0067,1.0029,1.0026,1.0033,1.0077,1.0094,1.01,1.0183,1.0111,1.0115,1.0118,1.0119,1.0335,1.0338,0,0,0,0,0,0,0.9938,0.9947,1.0043,1.0046,0.9971,1.0009,1.0014,1.0039,1.0066,1.0068,1.0035,1.0031,1.0087,1.0094,1.0101,1.0198,1.0115,1.012,1.0123,1.0332,1.0336,1.0339,0,0,0,0,0,0,0.9935,0.9946,1.0041,0.9996,1.0007,1.0014,1.0042,1.0041,1.0058,1.0071,1.0072,1.0051,1.0086,1.0095,1.0159,1.02,1.0122,1.0126,1.0329,1.0333,1.0337,1.0393,0,0,0,0,0,0,0.9931,0.9946,0.9976,0.9997,1.001,1.0096,1.0044,1.0044,1.0066,1.0061,1.0086,1.0088,1.0084,1.0152,1.0163,1.0205,1.013,1.0325,1.0331,1.0336,1.0387,1.0399,1.0408,0,0,0,0,0,0.9927,0.9989,0.9977,0.9989,1.0047,1.0099,1.0106,1.01,1.007,1.01,1.0109,1.0087,1.0194,1.0159,1.0171,1.0215,1.0322,1.0329,1.0335,1.0383,1.0396,1.0408,0,0,0,0,0,0,0.9973,0.9992,0.9979,1.005,1.0073,1.0092,1.013,1.0114,1.0147,1.0141,1.0132,1.0138,1.0206,1.0217,1.0177,1.0296,1.0254,1.0263,1.0285,1.0298,1.0309,1.0304,1.0134,0,0,0,0,0,0.9991,1.0031,1.0046,1.0107,1.0119,1.0123,1.0145,1.0138,1.0162,1.0172,1.0185,1.0209,1.0249,1.0274,1.0311,1.039,1.0395,1.0426,1.0437,1.0445,1.0453,1.0496,1.0511,1.036,1.036,1.036,0,0,1.0029,1.0045,1.007,1.0117,1.0134,1.0176,1.0131,1.0177,1.0208,1.0179,1.024,1.0251,1.0278,1.035,1.0382,1.0361,1.0496,1.0454,1.046,1.0463,1.0505,1.0519,1.0531,1.0365,1.0364,1.0363,0,0,1.012,1.0136,1.0189,1.0208,1.0234,1.0237,1.025,1.0272,1.0277,1.0338,1.0317,1.0356,1.0423,1.0443,1.0463,1.0565,1.0547,1.0577,1.0631,1.0674,1.0686,1.0696,1.0732,1.0746,1.0585,1.0586,1.0586,0,1.0165,1.0226,1.0219,1.0266,1.0288,1.0264,1.0318,1.0337,1.0375,1.0391,1.0367,1.0452,1.0469,1.0545,1.057,1.0587,1.0602,1.0573,1.0684,1.0695,1.0704,1.0739,1.0753,1.0589,1.0589,1.0588,1.0588,0,1.0279,1.0323,1.0363,1.0399,1.0426,1.0477,1.0478,1.0506,1.0498,1.0504,1.0567,1.0587,1.0627,1.0646,1.0638,1.0722,1.0709,1.0685,1.0642,1.0722,1.0755,1.0768,1.0594,1.0593,1.0592,1.0591,0,0,1.0398,1.0431,1.0446,1.0463,1.0492,1.0526,1.0577,1.0616,1.0641,1.0669,1.0711,1.077,1.0749,1.0771,1.0767,1.0804,1.0884,1.0776,1.0777,1.0795,1.0979,1.0995,1.1011,1.0873,1.0876,1.0878,1.0976,0,1.049,1.0577,1.0573,1.0656,1.0696,1.0675,1.072,1.0744,1.0751,1.0787,1.0796,1.0838,1.0807,1.082,1.0856,1.0867,1.0921,1.086,1.0914,1.0916,1.0906,1.1027,1.1045,1.1136,1.0989,1.0991,1.0993,0,1.0608,1.0639,1.0726,1.075,1.0767,1.0807,1.0843,1.0879,1.0906,1.0909,1.0935,1.0924,1.0978,1.0935,1.1009,1.0968,1.099,1.0999,1.1003,1.1006,1.0958,1.1034,1.1165,1.1179,1.1013,1.1011,1.1009,0,1.0685,1.075,1.081,1.0825,1.0855,1.0884,1.0898,1.0922,1.0947,1.098,1.0996,1.1035,1.1056,1.1088,1.1089,1.1058,1.1164,1.1122,1.1169,1.1169,1.119,1.1189,1.1327,1.1207,1.1207,1.1207,1.1206,0,1.0787,1.084,1.0845,1.0881,1.0942,1.0938,1.0998,1.101,1.1032,1.1072,1.1057,1.1095,1.1095,1.1135,1.1137,1.1198,1.1208,1.1213,1.1212,1.1213,1.1212,1.1226,1.122,1.121,1.1209,1.1209,1.1208,0,1.0882,1.0887,1.0951,1.0975,1.0983,1.1026,1.1047,1.1083,1.109,1.1141,1.1152,1.1164,1.121,1.1215,1.1268,1.127,1.1344,1.1337,1.1334,1.1332,1.1379,1.1374,1.153,1.155,1.1418,1.1419,1.1421,0,1.0946,1.0987,1.1016,1.1041,1.1057,1.1098,1.1123,1.1122,1.1149,1.1185,1.1217,1.1261,1.1296,1.1371,1.1384,1.1426,1.142,1.1471,1.1426,1.1426,1.142,1.1417,1.1421,1.148,1.1481,1.1482,1.1483,0,1.1059,1.106,1.1096,1.1135,1.1165,1.1196,1.1224,1.1246,1.1249,1.1281,1.1327,1.1355,1.141,1.1454,1.1495,1.1511,1.1498,1.1498,1.1511,1.1511,1.1508,1.151,1.1357,1.1494,1.1493,1.1492,1.1491,1.1491,1.114,1.1176,1.1202,1.1244,1.1265,1.1293,1.1328,1.134,1.1378,1.1422,1.142,1.1472,1.15,1.1554,1.1573,1.1615,1.1598,1.1616,1.1621,1.1625,1.163,1.1503,1.1622,1.1622,1.1622,1.1622,1.1621,0,1.1252,1.1268,1.1307,1.1347,1.138,1.1366,1.1397,1.1426,1.1471,1.1499,1.1534,1.1588,1.1632,1.1651,1.1694,1.1724,1.1719,1.1735,1.1732,1.1736,1.1643,1.1627,1.1738,1.1738,1.1738,1.1738,1.1738,1.1738,1.1313,1.1373,1.1378,1.1449,1.1465,1.1515,1.1534,1.156,1.1582,1.1643,1.1679,1.1691,1.1715,1.1761,1.1801,1.1806,1.1822,1.1841,1.1843,1.1754,1.1743,1.1731,1.1716,1.1844,1.1845,1.1932,1.1933,1.1934]}]]